Jefferson, GA

6:02 AM EDT on August 18, 2017 (GMT -0400)
Jefferson

Weather History for K19A - February, 2014

Change the Weather History Date:

Wednesday, February 26, 2014

  Actual Average (KWDR) Record (KWDR)
Temperature  
Mean Temperature 43 °F -  
Max Temperature 53 °F 59 °F 77 °F (1977)
Min Temperature 33 °F 33 °F -7 °F (2001)
Degree Days  
Heating Degree Days 22    
Moisture  
Dew Point 15 °F    
Average Humidity 34    
Maximum Humidity 62    
Minimum Humidity 13    
Precipitation  
Precipitation 0.00 in - - ()
Sea Level Pressure  
Sea Level Pressure 29.85 in    
Wind  
Wind Speed 5 mph (NW)    
Max Wind Speed 16 mph    
Max Gust Speed 21 mph    
Visibility 10 miles    
Events Rain    
Averages and records for this station are not official NWS values.
T = Trace of Precipitation, MM = Missing Value Source: NWS Daily Summary

Daily Weather History Graph

Daily Weather History Graph

Search for Another Location

Airport or City:

Trip Planner

Search our weather history database for the weather conditions in past years. The results will help you decide how hot, cold, wet, or windy it might be!

Date:

Astronomy

Feb. 26, 2014 Rise Set
Actual Time 7:06 AM EST 6:27 PM EST
Civil Twilight 6:41 AM EST 6:53 PM EST
Nautical Twilight 6:12 AM EST 7:22 PM EST
Astronomical Twilight 5:43 AM EST 7:51 PM EST
Moon 4:46 AM EST (2/26) 3:46 PM EST (2/26)
Length of Visible Light 12h 11m
Length of Day
11h 21m
Waning Crescent, 10% of the Moon is Illuminated
Feb 26
Waning Crescent
Mar 1
New
Mar 8
First Quarter
Mar 16
Full
Mar 23
Last Quarter

Hourly Weather History & Observations

Time (EST) Temp. Windchill Dew Point Humidity Pressure Visibility Wind Dir Wind Speed Gust Speed Precip Events Conditions
12:15 AM 46.4 °F - 33.8 °F 62% 29.91 in 10.0 mi Calm Calm - N/A   Clear
12:35 AM 44.6 °F 42.2 °F 32.0 °F 61% 29.91 in 10.0 mi WNW 4.6 mph - N/A   Clear
12:55 AM 44.6 °F 43.1 °F 32.0 °F 61% 29.91 in 10.0 mi WNW 3.5 mph - N/A   Scattered Clouds
1:15 AM 46.4 °F 45.2 °F 30.2 °F 53% 29.91 in 10.0 mi West 3.5 mph - N/A   Mostly Cloudy
1:35 AM 46.4 °F - 32.0 °F 57% 29.89 in 10.0 mi Calm Calm - N/A   Mostly Cloudy
1:55 AM 46.4 °F 44.3 °F 28.4 °F 50% 29.89 in 10.0 mi NW 4.6 mph - N/A   Scattered Clouds
2:15 AM 46.4 °F 44.3 °F 26.6 °F 46% 29.89 in 10.0 mi NW 4.6 mph - N/A   Mostly Cloudy
2:35 AM 44.6 °F 42.2 °F 24.8 °F 46% 29.89 in 10.0 mi NW 4.6 mph - N/A   Scattered Clouds
2:55 AM 44.6 °F 42.2 °F 24.8 °F 46% 29.89 in 10.0 mi WNW 4.6 mph - N/A   Scattered Clouds
3:15 AM 44.6 °F - 23.0 °F 43% 29.87 in 10.0 mi Calm Calm - N/A   Mostly Cloudy
3:35 AM 44.6 °F 41.4 °F 23.0 °F 43% 29.88 in 10.0 mi WNW 5.8 mph - N/A   Overcast
3:55 AM 46.4 °F 44.3 °F 19.4 °F 34% 29.87 in 10.0 mi NW 4.6 mph - N/A   Mostly Cloudy
4:15 AM 44.6 °F 41.4 °F 19.4 °F 37% 29.86 in 10.0 mi NW 5.8 mph - N/A   Mostly Cloudy
4:35 AM 44.6 °F 41.4 °F 19.4 °F 37% 29.86 in 10.0 mi NW 5.8 mph - N/A   Overcast
4:55 AM 44.6 °F 40.7 °F 21.2 °F 39% 29.87 in 10.0 mi NNW 6.9 mph - N/A Rain Light Rain
5:15 AM 44.6 °F 42.2 °F 23.0 °F 43% 29.87 in 10.0 mi NW 4.6 mph - N/A   Light Drizzle
5:35 AM 44.6 °F - 23.0 °F 43% 29.86 in 10.0 mi Calm Calm - N/A   Overcast
5:55 AM 44.6 °F 42.2 °F 26.6 °F 49% 29.88 in 10.0 mi NW 4.6 mph - N/A Rain Light Rain
6:15 AM 44.6 °F 43.1 °F 24.8 °F 46% 29.88 in 10.0 mi WNW 3.5 mph - N/A   Light Drizzle
6:35 AM 44.6 °F 41.4 °F 23.0 °F 43% 29.89 in 10.0 mi NW 5.8 mph - N/A   Overcast
6:55 AM 44.6 °F 40.2 °F 23.0 °F 43% 29.89 in 10.0 mi NW 8.1 mph - N/A   Light Drizzle
7:15 AM 44.6 °F 40.7 °F 23.0 °F 43% 29.89 in 10.0 mi NW 6.9 mph - N/A   Overcast
7:35 AM 44.6 °F 40.2 °F 19.4 °F 37% 29.89 in 10.0 mi NW 8.1 mph - N/A   Overcast
7:55 AM 44.6 °F 38.8 °F 17.6 °F 34% 29.89 in 10.0 mi NW 11.5 mph - N/A   Overcast
8:15 AM 44.6 °F 40.2 °F 17.6 °F 34% 29.90 in 10.0 mi NW 8.1 mph - N/A   Overcast
8:35 AM 44.6 °F 40.7 °F 17.6 °F 34% 29.90 in 10.0 mi WNW 6.9 mph - N/A   Light Drizzle
8:55 AM 42.8 °F 41.1 °F 19.4 °F 39% 29.92 in 10.0 mi NNW 3.5 mph - N/A Rain Light Rain
9:15 AM 41.0 °F - 24.8 °F 53% 29.93 in 10.0 mi Calm Calm - N/A Rain Light Rain
9:35 AM 41.0 °F - 28.4 °F 61% 29.91 in 10.0 mi Calm Calm - N/A Rain Light Rain
9:55 AM 41.0 °F - 28.4 °F 61% 29.91 in 10.0 mi Calm Calm - N/A   Overcast
10:15 AM 42.8 °F - 26.6 °F 53% 29.91 in 10.0 mi Calm Calm - N/A   Overcast
10:35 AM 42.8 °F - 26.6 °F 53% 29.90 in 10.0 mi Calm Calm - N/A   Overcast
10:55 AM 42.8 °F - 28.4 °F 57% 29.90 in 10.0 mi Calm Calm - N/A   Overcast
11:15 AM 42.8 °F - 26.6 °F 53% 29.89 in 10.0 mi Calm Calm - N/A   Overcast
11:35 AM 42.8 °F - 24.8 °F 49% 29.89 in 10.0 mi Calm Calm - N/A   Mostly Cloudy
11:55 AM 44.6 °F - 21.2 °F 39% 29.88 in 10.0 mi Calm Calm - N/A   Clear
12:15 PM 44.6 °F 43.1 °F 19.4 °F 37% 29.87 in 10.0 mi WNW 3.5 mph - N/A   Clear
12:35 PM 44.6 °F 40.7 °F 19.4 °F 37% 29.86 in 10.0 mi NW 6.9 mph - N/A   Clear
12:55 PM 46.4 °F 43.5 °F 14.0 °F 27% 29.85 in 10.0 mi WNW 5.8 mph - N/A   Clear
1:15 PM 48.2 °F - 10.4 °F 22% 29.84 in 10.0 mi NW 8.1 mph - N/A   Clear
1:35 PM 48.2 °F - 6.8 °F 19% 29.83 in 10.0 mi Calm Calm - N/A   Clear
1:55 PM 48.2 °F - 5.0 °F 17% 29.81 in 10.0 mi NW 4.6 mph - N/A   Clear
2:15 PM 50.0 °F - 5.0 °F 16% 29.80 in 10.0 mi WNW 8.1 mph - N/A   Clear
2:35 PM 50.0 °F - 1.4 °F 14% 29.80 in 10.0 mi NW 4.6 mph - N/A   Clear
2:55 PM 51.8 °F - 1.4 °F 13% 29.79 in 10.0 mi NW 6.9 mph - N/A   Clear
3:15 PM 51.8 °F - 1.4 °F 13% 29.79 in 10.0 mi NW 5.8 mph - N/A   Clear
3:35 PM 53.6 °F - 3.2 °F 13% 29.78 in 10.0 mi WSW 3.5 mph - N/A   Clear
3:55 PM 53.6 °F - 3.2 °F 13% 29.77 in 10.0 mi WSW 3.5 mph - N/A   Clear
4:15 PM 53.6 °F - 3.2 °F 13% 29.76 in 10.0 mi SSW 5.8 mph - N/A   Clear
4:35 PM 53.6 °F - 3.2 °F 13% 29.77 in 10.0 mi West 10.4 mph - N/A   Clear
4:55 PM 51.8 °F - 3.2 °F 14% 29.77 in 10.0 mi WNW 6.9 mph - N/A   Clear
5:15 PM 51.8 °F - 3.2 °F 14% 29.76 in 10.0 mi WNW 13.8 mph - N/A   Clear
5:35 PM 51.8 °F - 5.0 °F 15% 29.76 in 10.0 mi NW 10.4 mph - N/A   Clear
5:55 PM 50.0 °F - 6.8 °F 17% 29.76 in 10.0 mi NW 10.4 mph - N/A   Clear
6:15 PM 50.0 °F - 6.8 °F 17% 29.78 in 10.0 mi WNW 12.7 mph - N/A   Clear
6:35 PM 46.4 °F 41.1 °F 10.4 °F 23% 29.78 in 10.0 mi NW 11.5 mph - N/A   Clear
6:55 PM 46.4 °F 41.9 °F 10.4 °F 23% 29.79 in 10.0 mi NW 9.2 mph - N/A   Clear
7:15 PM 44.6 °F 39.7 °F 10.4 °F 25% 29.80 in 10.0 mi WNW 9.2 mph - N/A   Clear
7:35 PM 44.6 °F 37.4 °F 8.6 °F 23% 29.81 in 10.0 mi NW 16.1 mph 20.7 mph N/A   Clear
7:55 PM 42.8 °F 35.4 °F 8.6 °F 25% 29.82 in 10.0 mi NW 15.0 mph 19.6 mph N/A   Clear
8:15 PM 42.8 °F 35.4 °F 8.6 °F 25% 29.82 in 10.0 mi NW 15.0 mph 18.4 mph N/A   Clear
8:35 PM 41.0 °F 34.3 °F 8.6 °F 26% 29.83 in 10.0 mi NW 11.5 mph - N/A   Clear
8:55 PM 39.2 °F 32.0 °F 6.8 °F 26% 29.84 in 10.0 mi WNW 11.5 mph 18.4 mph N/A   Clear
9:15 PM 39.2 °F 32.0 °F 6.8 °F 26% 29.85 in 10.0 mi NW 11.5 mph 16.1 mph N/A   Clear
9:35 PM 37.4 °F 30.8 °F 5.0 °F 26% 29.86 in 10.0 mi NW 9.2 mph - N/A   Clear
9:55 PM 37.4 °F 32.1 °F 5.0 °F 26% 29.86 in 10.0 mi WNW 6.9 mph - N/A   Clear
10:15 PM 37.4 °F 30.8 °F 3.2 °F 24% 29.87 in 10.0 mi WNW 9.2 mph - N/A   Clear
10:35 PM 35.6 °F 29.2 °F 1.4 °F 24% 29.87 in 10.0 mi WNW 8.1 mph - N/A   Clear
10:55 PM 35.6 °F 29.2 °F -0.4 °F 22% 29.86 in 10.0 mi NW 8.1 mph - N/A   Clear
11:15 PM 35.6 °F 28.6 °F -0.4 °F 22% 29.86 in 10.0 mi NW 9.2 mph - N/A   Clear
11:35 PM 33.8 °F 24.8 °F 1.4 °F 25% 29.85 in 10.0 mi NW 12.7 mph - N/A   Clear
11:55 PM 33.8 °F 27.0 °F 1.4 °F 25% 29.84 in 10.0 mi WNW 8.1 mph - N/A   Clear